User: anonymous   Login
Location: Unspecified
(0.0000°N, 0.0000°E)
Time: 12:49:39
(UTC+00:00)
Language:

MICROSCOPE - Orbit

View from above orbital plane
View from above orbital plane
View from above satellite
View from above satellite

Ground track
Ground track

The orbit data is extracted from the following two-line orbital elements,

1 41457U 16025B   18200.55717455 +.00000009 +00000-0 +12568-4 0  9990
2 41457 098.2366 205.8258 0002034 102.3323 257.8102 14.53977461118361
Epoch (UTC): 19 July 2018 13:22:19
Eccentricity: 0.0002034
inclination: 98.2366°
perigee height: 711 km
apogee height: 714 km
right ascension of ascending node: 205.8258°
argument of perigee: 102.3323°
revolutions per day: 14.53977461
mean anomaly at epoch: 257.8102°
orbit number at epoch: 11836

The dashed part of the orbit path shows where the satellite is in the earth's shadow,  

DLR